Flag for Australia Weather past 2 weeks in Alice Springs, Northern Territory, Australia

Now
82 °F

Sunny.


Feels Like: 80 °F
Forecast: 49 / 83 °F
Wind: 5 mph from Northwest

Location: Alice Springs Aerodrome

Current Time: Sep 15, 2014 at 12:02:30 PM

Latest Report: Sep 15, 2014 at 11:30 AM


Visibility: 10 mi

Pressure: 30.09 "Hg

Humidity: 9%

Dew point: 19 °F

Location of Alice SpringsLocation

Historic Weather in Alice Springs — Graph

°F

Alice Springs temperature yesterday

Maximum temperature yesterday: 84 °F (at 2:30 PM)
Minimum temperature yesterday: 45 °F (at 5:30 AM)
Average temperature yesterday: 67 °F

Past Weeks' High & Low Weather Summary

 TemperatureHumidityPressure
High93 °F (Sep 8, 2:33 PM)70% (Sep 3, 3:30 AM)30.33 "Hg (Sep 3, 3:30 AM)
Low37 °F (Sep 3, 5:30 AM)3% (Sep 1, 3:30 PM)29.89 "Hg (Sep 8, 5:00 PM)
Average68 °F25%30.09 "Hg
* Reported Aug 31 10:30 AM — Sep 15 10:30 AM, Alice Springs, Weather by CustomWeather, © 2014

Note: Actual official high and low records may vary slightly from our data, if they occured in-between our weather recording intervals... More about our weather records

Advertising

Alice Springs weather history for previous 24 hours

 ConditionsComfort  
Time TempWeatherWind HumidityBarometerVisibility
10:30 AM
Sep 15
81 °FSunny.5 mph10%30.09 "Hg10 mi
10:00 AM77 °FPassing clouds.7 mph9%30.12 "HgN/A
9:30 AM75 °FPassing clouds.7 mph10%30.12 "HgN/A
9:00 AM72 °FSunny.5 mph11%30.09 "Hg10 mi
8:30 AM68 °FSunny.5 mph13%30.09 "Hg10 mi
8:00 AM63 °FSunny.5 mph17%30.09 "Hg10 mi
7:30 AM57 °FSunny.6 mph20%30.07 "Hg10 mi
7:00 AM52 °FSunny.6 mph26%30.07 "Hg10 mi
6:30 AM48 °FSunny.5 mph29%30.04 "Hg10 mi
6:00 AM48 °FClear.No wind32%30.04 "Hg10 mi
5:30 AM50 °FClear.2 mph32%30.04 "HgN/A
4:30 AM50 °FClear.6 mph30%30.01 "HgN/A
4:00 AM52 °FClear.1 mph28%30.01 "HgN/A
3:30 AM52 °FClear.No wind32%30.01 "HgN/A
3:00 AM54 °FClear.No wind30%30.01 "HgN/A
2:30 AM52 °FClear.2 mph30%30.01 "HgN/A
1:30 AM55 °FClear.7 mph26%30.04 "HgN/A
12:30 AM57 °FClear.6 mph21%30.07 "HgN/A
12:00 AM55 °FClear.6 mph23%30.07 "HgN/A
11:30 PM
Sep 14
57 °FClear.5 mph25%30.07 "HgN/A
11:00 PM61 °FClear.No wind19%30.07 "HgN/A
10:30 PM63 °FClear.5 mph24%30.07 "HgN/A
10:00 PM61 °FClear.No wind19%30.07 "HgN/A
9:30 PM64 °FClear.5 mph21%30.09 "HgN/A
9:00 PM64 °FClear.6 mph21%30.09 "HgN/A
8:30 PM66 °FClear.6 mph19%30.07 "HgN/A
8:00 PM70 °FClear.6 mph15%30.07 "HgN/A
7:30 PM72 °FClear.7 mph14%30.04 "HgN/A
7:00 PM72 °FClear.7 mph14%30.04 "HgN/A
6:30 PM77 °FClear.7 mph11%30.04 "HgN/A
6:00 PM81 °FClear.10 mph7%30.04 "HgN/A
5:30 PM82 °FSunny.9 mph7%30.04 "HgN/A
5:00 PM84 °FSunny.8 mph8%30.01 "Hg10 mi
4:30 PM84 °FSunny.8 mph8%30.01 "Hg10 mi
4:00 PM84 °FPassing clouds.10 mph5%30.01 "HgN/A
3:30 PM84 °FSunny.9 mph8%30.01 "Hg10 mi
2:30 PM84 °FSunny.14 mph5%30.04 "Hg10 mi
2:00 PM82 °FPassing clouds.13 mph9%30.04 "HgN/A
1:30 PM82 °FSunny.12 mph7%30.07 "Hg10 mi
1:00 PM82 °FPassing clouds.7 mph7%30.07 "HgN/A
12:30 PM82 °FSunny.10 mph9%30.09 "Hg10 mi
12:00 PM82 °FSunny.10 mph9%30.09 "Hg10 mi
Weather by CustomWeather, © 2014

See weather overviewHow to use our weather pages